Regional Weather Roundup
Issued by NWS

Home | Current Version | Previous Version | Text Only | Print | Product List | Glossary On
Versions: 1 2 3 4 5 6 7 8 9 10 11 12 13 14 15 16 17 18 19 20 21 22 23 24 25 26 27 28 29 30 31 32 33 34 35 36 37 38 39 40 41 42 43 44 45 46 47 48 49 50
000
ASUS43 KDMX 160501
RWRIA

WEATHER ROUNDUP FOR IOWA
NATIONAL WEATHER SERVICE DES MOINES IA
1100 PM CST SUN JAN 15 2017

NOTE: "FAIR" INDICATES FEW OR NO CLOUDS BELOW 12,000 FEET WITH NO
SIGNIFICANT WEATHER AND/OR OBSTRUCTIONS TO VISIBILITY.

* - THESE STATIONS ARE NOT NWS STATIONS...THUS NOT UNDER NWS
QUALITY CONTROL.  THEY ALSO DO NOT REPORT WEATHER SUCH
AS PRECIPITATION OR FOG.

IAZ001>003-012>014-020>022-031>034-043>046-160600-
   NORTHWEST IOWA

CITY           SKY/WX    TMP DP  RH WIND       PRES   REMARKS
CARROLL *      CLOUDY    32  32 100 SE9       30.16S FOG     WCI  24
CHEROKEE *     CLOUDY    30  26  84 SE6       30.16F WCI  24
DENISON *      MIX PCPN  32  32 100 E6        30.13F WCI  26
LE MARS *      CLOUDY    30  21  69 SE5       30.17S WCI  25
ORANGE CITY *  CLOUDY    27  21  80 CALM      30.15S
SHELDON *      CLOUDY    23  21  93 SE6       30.14S WCI  16
SIOUX CITY     CLOUDY    32  28  85 SE3       30.16S
SPENCER        CLOUDY    20  17  88 E5        30.17S WCI  13
STORM LAKE *   CLOUDY    28  27  93 SE8       30.15F WCI  20
$$

IAZ055>058-069>071-079>083-090>094-160600-
   SOUTHWEST IOWA

CITY           SKY/WX    TMP DP  RH WIND       PRES   REMARKS
ATLANTIC *     MIX PCPN  32  32 100 E5        30.15F WCI  27
AUDUBON *      MIX PCPN  32  28  86 SE6       30.16S WCI  26
CLARINDA *     CLOUDY    32  32 100 E6        30.16F WCI  26
COUNCIL BLFS * CLOUDY    32  32 100 SE5       30.13F FOG     WCI  27
CRESTON *      CLOUDY    30  30 100 SE9       30.16F FOG     WCI  22
HARLAN  *      MIX PCPN  32  32 100 E5        30.18F WCI  27
LAMONI         MIX PCPN  31  30  96 E6        30.15F FOG     WCI  25
RED OAK *      CLOUDY    32  32 100 E6        30.15F WCI  26
SHENANDOAH *   CLOUDY    32  32 100 E5        30.16S WCI  27
$$

IAZ047>049-059>061-072>074-084-160600-
   CENTRAL IOWA

CITY           SKY/WX    TMP DP  RH WIND       PRES   REMARKS
AMES           FRZ RAIN  30  28  92 E7        30.20F FOG     WCI  23
ANKENY *       CLOUDY    30  28  93 MISG      30.21F FOG
BOONE *        MIX PCPN  30  28  93 SE13      30.17F WCI  20
CHARITON *     CLOUDY    30  28  93 E7        30.18S FOG     WCI  23
DES MOINES     FRZ RAIN  31  28  89 E8        30.19F FOG     WCI  23
GRINNELL*      MIX PCPN  29  25  86 E8        30.22F WCI  21
KNOXVILLE *    CLOUDY    30  27  86 E6        30.19S WCI  24
MARSHALLTOWN   MIX PCPN  29  23  78 SE9       30.22S WCI  20
NEWTON *       CLOUDY    30  27  86 E9        30.20F FOG     WCI  22
PELLA *        MIX PCPN  30  27  90 E7        30.22F WCI  23
PERRY *        DRIZZLE   31  30  99 E10       30.18S WCI  22
$$

IAZ004>006-015-016-023>025-035-036-160600-
   NORTH CENTRAL IOWA

CITY           SKY/WX    TMP DP  RH WIND       PRES   REMARKS
ALGONA *       CLOUDY    27  23  86 SE7       30.18F WCI  19
CLARION *      CLOUDY    28  25  86 E8        30.20S WCI  20
ESTHERVILLE    CLOUDY    22  20  92 SE7       30.17S WCI  13
FORT DODGE *   CLOUDY    28  25  86 SE3       30.20S
MASON CITY     CLOUDY    22  18  85 E5        30.22S WCI  16
FOREST CITY *    N/A     25  21  86 SE7       30.20S WCI  17
WEBSTER CITY * CLOUDY    30  30 100 SE10      30.17F FOG     WCI  21
IOWA FALLS *   MIX PCPN  30  24  79 E6        30.21F WCI  24
$$

IAZ007>011-017>019-026>030-037>042-050>054-066-160600-
   NORTHEAST IOWA

CITY           SKY/WX    TMP DP  RH WIND       PRES   REMARKS
CEDAR RAPIDS   CLOUDY    30  19  63 E7        30.23F WCI  23
CHARLES CITY * CLOUDY    23  19  86 E7        30.23F WCI  15
CLINTON *      CLOUDY    30  26  85 E6        30.27F WCI  24
DECORAH *      CLOUDY    21  16  79 CALM      30.23F
DUBUQUE        CLOUDY    28  17  63 SE6       30.25F WCI  22
MONTICELLO *   CLOUDY    28  19  69 E5        30.26S WCI  23
OELWEIN *      CLOUDY    27  23  86 SE5       30.24F WCI  21
WATERLOO       CLOUDY    28  20  71 E6        30.24F WCI  22
$$

IAZ064-065-067-068-078-160600-
   EAST CENTRAL IOWA

CITY           SKY/WX    TMP DP  RH WIND       PRES   REMARKS
DAVENPORT      MOCLDY    31  24  75 E6        30.26F WCI  25
IOWA CITY      CLOUDY    32  22  66 E7        30.26F WCI  26
MUSCATINE *    CLOUDY    32  28  86 E7        30.26F HAZE    WCI  26
QUAD CITIES    CLOUDY    33  26  75 E6        30.26F WCI  28
$$

IAZ062-063-075>077-085>089-095>099-160600-
   SOUTHEAST IOWA

CITY           SKY/WX    TMP DP  RH WIND       PRES   REMARKS
BURLINGTON     CLOUDY    32  28  85 E8        30.23F WCI  25
FAIRFIELD *    CLOUDY    30  27  86 E9        30.22F FOG     WCI  22
FORT MADISON * CLOUDY    32  28  86 E5        30.23F FOG     WCI  27
KEOKUK *       CLOUDY    32  32 100 E8        30.22F FOG     WCI  25
OSKALOOSA *    MIX PCPN  29  28  92 E9        30.21F WCI  21
CENTERVILLE *  CLOUDY    28  28 100 CALM      30.20S
OTTUMWA        CLOUDY    30  27  88 E10       30.19F FOG     WCI  21
WASHINGTON *   MIX PCPN  32  28  86 SE10      30.24F WCI  24
$$

ABBREVIATIONS USED IN REMARKS
   TC - TEMPERATURES IN CELSIUS
  WCI - WIND CHILL INDEX
   HX - HEAT INDEX
  VSB - VISIBILITY
$$





USA.gov is the U.S. government's official web portal to all federal, state and local government web resources and services.